7 * 24
多渠道服务支持
ONEWEB-0435是英国OneWeb星座计划中的一颗低轨通信小卫星,于2022年2月10日发射入轨。该卫星隶属于OneWeb全球低轨互联网星座,旨在为全球尤其是南北极区域提供宽带互联网接入服务。它运行在近地轨道,轨道倾角约86.4°,属于OneWeb一代组网卫星,助力OneWeb构建覆盖全球的天基通信网络,和SpaceX星链形成商业通信星座竞争格局。
英国
(GB)
| 数据来源 | 国际轨道数据 |
| 星历时间: | 2026-09-15T22:27:07+0800 9小时前 查看轨道信息 |
| 半长轴: | 7599.845km |
| 偏心率: | 0.0001748 |
| 轨道倾角: | 87.890° |
| 近地点辐角 | 88.756° |
| 升交点赤经 | 18.273° |
| 平近点角 | 271.377° |
| 近地点: | 1220.379km |
| 远地点: | 1223.037km |
| 周期: | 109.892分钟 |
| 每日圈数: | 13.103754 |